Date String (YYYY-MM-DD hh:mm:ss) UTC,Instrument flags,absolute air pressure of the measurement (hPa),sample flow rate (lpm),inlet stack bypass flow (lpm),air temperature of the measurement (°C),ambient temperature measured by the external sensor (°C),aerosol sample conditioner tube jacket temperature (°C),OPC LED temperature (°C),internal box temperature (°C),relative humidity of the measurement (%),span deviation,mass concentration of particles derived from Lorenz-Mie calculation of OPC scattering (μg/m³),mass concentration of particles derived from Lorenz-Mie calculation of OPC scattering (μg/m³),mass concentration of particles derived from Lorenz-Mie calculation of OPC scattering (μg/m³)
DateTimeUTC,F1_M11,P_M11,Q1_M11,Q2_M11,T1_M11,T2_M11,T3_M11,T4_M11,T5_M11,U1_M11,ZSPAN_M11,X0_M11,X2_M11,X1_M11
2024-02-10 21:00:00,SystemResetWarning,0825.2,5.01,000.00,018.2,017.9,000.0,026.7,020.0,19.7,0000.0,0009.77,0006.97,0006.84
2024-02-10 21:01:00,SystemResetWarning,0825.2,5.00,000.00,018.3,017.9,000.0,026.7,020.0,19.7,0000.0,0009.79,0006.99,0006.85
2024-02-10 21:02:00,SystemResetWarning,0825.3,5.00,000.00,018.3,017.9,000.0,026.7,020.0,19.8,0000.0,0010.28,0007.03,0006.88
2024-02-10 21:03:00,SystemResetWarning,0825.2,4.99,000.00,018.3,017.9,000.0,026.7,020.0,19.9,0000.0,0010.31,0007.04,0006.89
2024-02-10 21:04:00,SystemResetWarning,0825.2,5.00,000.00,018.3,017.9,000.0,026.7,020.0,20.1,0000.0,0010.26,0007.03,0006.90
2024-02-10 21:05:00,SystemResetWarning,0825.2,5.00,000.00,018.3,017.8,000.0,026.7,020.0,20.4,0000.0,0010.28,0007.05,0006.92
2024-02-10 21:06:00,SystemResetWarning,0825.3,5.01,000.00,018.3,017.8,000.0,026.7,020.0,20.2,0000.0,0010.31,0007.08,0006.94
2024-02-10 21:07:00,SystemResetWarning,0825.2,5.01,000.00,018.3,017.8,000.0,026.7,020.0,20.0,0000.0,0010.31,0007.10,0006.95
2024-02-10 21:08:00,SystemResetWarning,0825.3,4.99,000.00,018.3,017.8,000.0,026.7,020.0,20.1,0000.0,0010.13,0007.10,0006.97
2024-02-10 21:09:00,SystemResetWarning,0825.2,4.99,000.00,018.3,017.8,000.0,026.7,020.0,20.2,0000.0,0009.76,0007.12,0006.98
2024-02-10 21:10:00,SystemResetWarning,0825.2,5.00,000.00,018.3,017.8,000.0,026.7,020.0,20.4,0000.0,0009.21,0007.14,0006.99
2024-02-10 21:11:00,SystemResetWarning,0825.2,5.00,000.00,018.3,017.8,000.0,026.7,020.0,20.3,0000.0,0009.24,0007.16,0007.00
2024-02-10 21:12:00,SystemResetWarning,0825.2,5.00,000.00,018.3,017.8,000.0,026.7,020.0,20.3,0000.0,0009.29,0007.15,0006.99
2024-02-10 21:13:00,SystemResetWarning,0825.2,5.01,000.00,018.2,017.8,000.0,026.7,020.0,20.4,0000.0,0009.03,0007.14,0006.98
2024-02-10 21:14:00,SystemResetWarning,0825.2,5.01,000.00,018.3,017.8,000.0,026.7,020.0,20.7,0000.0,0008.92,0007.14,0006.97
2024-02-10 21:15:00,SystemResetWarning,0825.2,5.00,000.00,018.3,017.8,000.0,026.7,020.0,20.8,0001.9,0008.91,0007.13,0006.97
2024-02-10 21:16:00,SystemResetWarning,0825.2,5.00,000.00,018.3,017.8,000.0,026.7,020.0,20.9,0002.2,0008.93,0007.14,0006.97
2024-02-10 21:17:00,SystemResetWarning,0825.2,5.00,000.00,018.2,017.8,000.0,026.7,020.0,21.1,0002.3,0008.91,0007.13,0006.96
2024-02-10 21:18:00,SystemResetWarning,0825.2,5.00,000.00,018.3,017.8,000.0,026.7,020.0,21.4,0002.1,0008.89,0007.12,0006.95
2024-02-10 21:19:00,SystemResetWarning,0825.3,4.99,000.00,018.2,017.8,000.0,026.7,020.0,21.4,0002.0,0008.89,0007.13,0006.96
2024-02-10 21:20:00,SystemResetWarning,0825.2,5.00,000.00,018.2,017.8,000.0,026.7,020.0,21.3,0002.2,0008.85,0007.13,0006.96
2024-02-10 21:21:00,SystemResetWarning,0825.3,5.01,000.00,018.3,017.8,000.0,026.7,020.0,20.8,0002.5,0008.90,0007.15,0006.98
2024-02-10 21:22:00,SystemResetWarning,0825.2,5.01,000.00,018.2,017.8,000.0,026.7,020.0,20.5,0002.5,0008.99,0007.22,0007.04
2024-02-10 21:23:00,SystemResetWarning,0825.3,5.01,000.00,018.2,017.8,000.0,026.7,020.0,20.6,0002.2,0009.10,0007.32,0007.13
2024-02-10 21:24:00,SystemResetWarning,0825.3,5.00,000.00,018.2,017.8,000.0,026.7,020.0,20.8,0002.0,0009.04,0007.40,0007.21
2024-02-10 21:25:00,SystemResetWarning,0825.3,5.00,000.00,018.2,017.8,000.0,026.7,020.0,21.1,0001.7,0009.11,0007.45,0007.26
2024-02-10 21:26:00,SystemResetWarning,0825.3,5.00,000.00,018.2,017.8,000.0,026.7,020.0,20.9,0001.7,0009.19,0007.51,0007.31
2024-02-10 21:27:00,SystemResetWarning,0825.3,5.00,000.00,018.2,017.8,000.0,026.7,020.0,21.1,0002.0,0009.22,0007.55,0007.36
2024-02-10 21:28:00,SystemResetWarning,0825.3,5.00,000.00,018.2,017.8,000.0,026.7,020.0,20.9,0002.0,0009.27,0007.58,0007.39
2024-02-10 21:29:00,SystemResetWarning,0825.3,5.00,000.00,018.3,017.8,000.0,026.7,020.0,20.7,0002.2,0009.32,0007.63,0007.43
2024-02-10 21:30:00,SystemResetWarning,0825.3,4.99,000.00,018.3,017.9,000.0,026.7,020.0,20.5,0002.3,0009.35,0007.66,0007.46
2024-02-10 21:31:00,SystemResetWarning,0825.3,5.00,000.00,018.3,017.9,000.0,026.7,020.0,20.4,0002.1,0009.41,0007.69,0007.48
2024-02-10 21:32:00,SystemResetWarning,0825.4,5.01,000.00,018.3,017.9,000.0,026.7,020.0,20.5,0000.2,0009.42,0007.71,0007.50
2024-02-10 21:33:00,SystemResetWarning,0825.4,5.01,000.00,018.2,017.9,000.0,026.7,020.0,20.6,0000.0,0009.40,0007.68,0007.45
2024-02-10 21:34:00,SystemResetWarning,0825.4,5.00,000.00,018.2,017.9,000.0,026.7,020.0,20.9,0000.0,0009.70,0007.60,0007.37
2024-02-10 21:35:00,SystemResetWarning,0825.4,5.00,000.00,018.3,017.8,000.0,026.7,020.0,21.0,0000.0,0009.71,0007.55,0007.31
2024-02-10 21:36:00,SystemResetWarning,0825.4,5.00,000.00,018.3,017.8,000.0,026.7,020.0,21.0,0000.0,0009.76,0007.54,0007.28
2024-02-10 21:37:00,SystemResetWarning,0825.4,4.99,000.00,018.2,017.8,000.0,026.7,020.0,20.8,0000.0,0009.73,0007.52,0007.26
2024-02-10 21:38:00,SystemResetWarning,0825.4,5.00,000.00,018.2,017.8,000.0,026.7,020.0,20.4,0000.0,0009.92,0007.53,0007.25
2024-02-10 21:39:00,SystemResetWarning,0825.4,5.00,000.00,018.2,017.8,000.0,026.7,020.0,20.2,0000.0,0009.90,0007.52,0007.24
2024-02-10 21:40:00,SystemResetWarning,0825.4,5.00,000.00,018.2,017.8,000.0,026.7,020.0,20.2,0000.0,0009.87,0007.50,0007.23
2024-02-10 21:41:00,SystemResetWarning,0825.4,5.00,000.00,018.2,017.8,000.0,026.7,020.0,20.5,0000.0,0009.98,0007.49,0007.22
2024-02-10 21:42:00,SystemResetWarning,0825.4,5.00,000.00,018.3,017.8,000.0,026.7,020.0,20.4,0000.4,0010.13,0007.49,0007.22
2024-02-10 21:43:00,SystemResetWarning,0825.4,5.00,000.00,018.2,017.8,000.0,026.7,020.0,20.4,0001.5,0010.25,0007.46,0007.20
2024-02-10 21:44:00,SystemResetWarning,0825.4,5.00,000.00,018.3,017.8,000.0,026.7,020.0,20.3,0001.1,0010.23,0007.42,0007.18
2024-02-10 21:45:00,SystemResetWarning,0825.4,5.00,000.00,018.2,017.8,000.0,026.7,020.0,20.5,0001.3,0010.11,0007.41,0007.18
2024-02-10 21:46:00,SystemResetWarning,0825.4,5.00,000.00,018.2,017.8,000.0,026.7,020.0,20.5,0001.4,0009.90,0007.40,0007.16
2024-02-10 21:47:00,SystemResetWarning,0825.4,5.00,000.00,018.2,017.8,000.0,026.7,020.0,20.6,0001.2,0009.94,0007.37,0007.14
2024-02-10 21:48:00,SystemResetWarning,0825.4,5.01,000.00,018.3,017.8,000.0,026.7,020.0,20.8,0001.0,0009.94,0007.36,0007.13
2024-02-10 21:49:00,SystemResetWarning,0825.4,5.00,000.00,018.3,017.8,000.0,026.7,020.0,20.9,0001.0,0009.80,0007.34,0007.09
2024-02-10 21:50:00,SystemResetWarning,0825.4,4.99,000.00,018.3,017.8,000.0,026.8,020.0,20.9,0001.6,0009.78,0007.31,0007.06
2024-02-10 21:51:00,SystemResetWarning,0825.4,4.99,000.00,018.3,017.8,000.0,026.8,020.0,20.8,0002.0,0009.69,0007.26,0007.02
2024-02-10 21:52:00,SystemResetWarning,0825.4,5.01,000.00,018.2,017.8,000.0,026.8,020.0,20.7,0001.8,0009.55,0007.23,0007.00
2024-02-10 21:53:00,SystemResetWarning,0825.4,5.01,000.00,018.2,017.8,000.0,026.7,020.0,20.8,0000.3,0009.41,0007.20,0006.98
2024-02-10 21:54:00,SystemResetWarning,0825.5,4.98,000.00,018.2,017.8,000.0,026.7,020.0,20.8,0000.0,0009.19,0007.18,0006.96
2024-02-10 21:55:00,SystemResetWarning,0825.5,4.99,000.00,018.2,017.8,000.0,026.7,020.0,20.7,0000.0,0009.13,0007.17,0006.94
2024-02-10 21:56:00,SystemResetWarning,0825.5,5.01,000.00,018.2,017.8,000.0,026.8,020.0,20.6,0000.0,0009.07,0007.16,0006.93
2024-02-10 21:57:00,SystemResetWarning,0825.5,5.01,000.00,018.2,017.8,000.0,026.8,020.0,20.6,0000.0,0009.18,0007.13,0006.90
2024-02-10 21:58:00,SystemResetWarning,0825.5,4.98,000.00,018.2,017.8,000.0,026.8,020.0,20.7,0000.0,0008.93,0007.07,0006.86
2024-02-10 21:59:00,SystemResetWarning,0825.5,4.99,000.00,018.2,017.8,000.0,026.8,020.0,20.9,0000.0,0008.84,0006.99,0006.82
